FW0693 Weather Reports


time (UTC)temp
C
wind
direction
speed
KPH
gust
KPH
rain 1hr
cm
rain 24hr
cm
rain mn
cm
humidity
%
barometer
mb
20260507191533 11 77 0.0 3.2 0.00 0.00 0.00 78 1015.8
20260507190054 12 77 0.0 0.0 0.00 0.00 0.00 77 1015.8
20260507184510 12 77 0.0 1.6 0.00 0.00 0.00 77 1015.7
20260507183039 12 77 0.0 3.2 0.00 0.00 0.00 75 1015.7
20260507181501 12 77 0.0 3.2 0.00 0.00 0.00 74 1015.7
20260507180033 13 77 1.6 4.8 0.00 0.00 0.00 73 1015.7
20260507174604 13 77 1.6 4.8 0.00 0.00 0.00 72 1015.5
20260507173031 13 68 3.2 6.4 0.00 0.00 0.00 71 1015.6
20260507171601 13 75 4.8 8.0 0.00 0.00 0.00 69 1015.5
20260507170010 13 79 1.6 6.4 0.00 0.00 0.00 68 1015.5
20260507164533 13 87 1.6 6.4 0.00 0.00 0.00 67 1015.4
20260507163004 14 73 0.0 6.4 0.00 0.00 0.00 67 1015.3
20260507161539 14 74 4.8 11.3 0.00 0.00 0.00 67 1015.4
20260507160112 15 46 3.2 8.0 0.00 0.00 0.00 67 1015.5
20260507154530 15 78 1.6 8.0 0.00 0.00 0.00 67 1015.5
20260507153001 15 46 3.2 8.0 0.00 0.00 0.00 67 1015.5
20260507151537 15 5 4.8 8.0 0.00 0.00 0.00 67 1015.5
20260507150005 15 31 1.6 8.0 0.00 0.00 0.00 68 1015.4
20260507144531 14 17 0.0 8.0 0.00 0.00 0.00 67 1015.5
20260507143102 14 17 4.8 9.7 0.00 0.00 0.00 69 1015.5
20260507141521 14 337 3.2 8.0 0.00 0.00 0.00 69 1015.5
20260507140056 14 317 3.2 8.0 0.00 0.00 0.00 67 1015.5
20260507134551 14 360 4.8 9.7 0.00 0.00 0.00 67 1015.6
20260507133031 14 46 3.2 8.0 0.00 0.00 0.00 67 1015.6
20260507131508 14 80 1.6 9.7 0.00 0.00 0.00 65 1015.6
20260507130055 14 66 1.6 9.7 0.00 0.00 0.00 66 1015.7
20260507124514 14 318 1.6 12.9 0.00 0.00 0.00 68 1015.7
20260507123102 14 81 4.8 11.3 0.00 0.00 0.00 69 1015.7
20260507121519 13 343 4.8 8.0 0.00 0.00 0.00 71 1015.7
20260507120054 13 342 1.6 6.4 0.00 0.00 0.00 69 1015.7
20260507114513 13 28 0.0 8.0 0.00 0.00 0.00 72 1015.7
20260507113056 13 281 3.2 4.8 0.00 0.00 0.00 72 1015.7
20260507111518 13 317 4.8 8.0 0.00 0.00 0.00 72 1015.7
20260507110036 13 351 6.4 9.7 0.00 0.00 0.00 72 1015.6
20260507104504 13 5 4.8 9.7 0.00 0.00 0.00 71 1015.8
20260507103030 13 81 1.6 11.3 0.00 0.00 0.00 70 1015.8
20260507101601 13 64 3.2 12.9 0.00 0.00 0.00 71 1015.7
20260507100011 12 297 1.6 4.8 0.00 0.00 0.00 76 1015.7
20260507094537 12 309 3.2 6.4 0.00 0.00 0.00 76 1015.7
20260507093015 12 293 4.8 6.4 0.00 0.00 0.00 78 1015.6
20260507091540 12 303 3.2 8.0 0.00 0.00 0.00 77 1015.5
20260507090002 12 15 1.6 6.4 0.00 0.00 0.00 78 1015.5
20260507084524 11 26 3.2 6.4 0.00 0.03 0.00 78 1015.4
20260507083058 11 5 0.0 6.4 0.00 0.03 0.00 77 1015.5
20260507081520 11 360 4.8 9.7 0.00 0.03 0.00 79 1015.3
20260507080036 11 311 1.6 6.4 0.00 0.03 0.00 80 1015.3
20260507074606 11 318 3.2 8.0 0.00 0.05 0.00 83 1015.3
20260507073016 10 24 0.0 6.4 0.00 0.05 0.00 84 1015.1
20260507071558 10 12 0.0 6.4 0.00 0.05 0.00 86 1015.0
20260507070033 9 328 1.6 4.8 0.00 0.05 0.00 89 1015.0
20260507064550 8 325 1.6 4.8 0.00 0.15 0.00 91 1015.0
20260507063022 8 232 0.0 1.6 0.00 0.15 0.00 92 1014.9
20260507061558 8 283 0.0 0.0 0.00 0.15 0.00 92 1014.8
20260507060030 8 283 0.0 0.0 0.00 0.15 0.00 92 1014.7
20260507054602 7 283 0.0 4.8 0.00 0.23 0.00 92 1014.6
20260507053044 7 286 0.0 3.2 0.00 0.23 0.00 91 1014.4
20260507051519 7 286 1.6 4.8 0.00 0.23 0.00 92 1014.3
20260507050007 7 288 0.0 3.2 0.00 0.23 0.00 91 1014.1
20260507044535 7 288 0.0 1.6 0.00 0.38 0.00 91 1013.9
20260507043055 7 288 3.2 6.4 0.00 0.38 0.00 91 1013.7
20260507041531 7 290 3.2 4.8 0.00 0.38 0.00 91 1013.6
20260507040013 7 292 1.6 3.2 0.00 0.38 0.00 91 1013.5
20260507034534 7 292 3.2 4.8 0.00 0.46 0.00 91 1013.5
20260507033100 7 297 3.2 4.8 0.00 0.46 0.00 91 1013.3
20260507031505 7 355 0.0 4.8 0.00 0.46 0.00 91 1013.2
20260507030037 7 355 0.0 3.2 0.00 0.46 0.00 91 1013.2
20260507024503 7 355 0.0 3.2 0.00 0.51 0.00 91 1013.1
20260507023027 7 5 1.6 6.4 0.00 0.51 0.00 91 1013.1
20260507021549 7 360 3.2 9.7 0.00 0.51 0.00 91 1013.0
20260507020009 7 360 1.6 8.0 0.00 0.51 0.00 91 1012.9
20260507014542 7 297 3.2 6.4 0.00 0.56 0.00 91 1012.8
20260507013057 7 298 3.2 6.4 0.00 0.56 0.00 91 1012.8
20260507011518 7 290 3.2 6.4 0.00 0.56 0.00 91 1012.7
20260507010037 7 289 3.2 6.4 0.00 0.56 0.00 91 1012.7
20260507004517 7 290 4.8 6.4 0.00 0.66 0.00 91 1012.7
20260507003037 7 286 4.8 6.4 0.00 0.66 0.00 91 1012.6
20260507001558 7 288 3.2 6.4 0.00 0.66 0.00 91 1012.6
20260507000026 7 286 3.2 8.0 0.00 0.66 0.00 91 1012.5
20260506234539 7 277 3.2 8.0 0.00 0.71 0.00 91 1012.5
20260506233006 7 262 4.8 9.7 0.00 0.71 0.00 90 1012.4
20260506231543 7 281 3.2 6.4 0.00 0.71 0.00 90 1012.3
20260506224535 7 292 1.6 3.2 0.00 0.79 0.00 90 1012.1
20260506223009 7 292 1.6 4.8 0.00 0.79 0.00 90 1012.0
20260506221536 7 292 1.6 4.8 0.00 0.79 0.00 89 1011.9
20260506220014 7 294 4.8 6.4 0.00 0.79 0.00 89 1011.7
20260506214503 7 290 3.2 6.4 0.00 0.84 0.79 88 1011.6
20260506213049 7 297 3.2 6.4 0.00 0.84 0.79 88 1011.5
20260506211514 7 326 1.6 6.4 0.00 0.84 0.79 88 1011.3
20260506210033 8 309 3.2 4.8 0.00 0.84 0.79 87 1011.2
20260506204508 8 313 1.6 4.8 0.00 0.99 0.79 87 1011.0
20260506203055 8 323 1.6 4.8 0.00 0.99 0.79 87 1010.8
20260506201535 9 345 3.2 6.4 0.00 0.99 0.79 87 1010.7
20260506200058 10 337 4.8 9.7 0.00 0.99 0.79 87 1010.6
20260506194531 10 304 3.2 8.0 0.00 1.17 0.79 87 1010.4
20260506193102 10 360 3.2 8.0 0.00 1.17 0.79 88 1010.2